,,PressureMeas_1m,,PRMeasQMR101_1,,RHStat155_1m_1,,SRMeasQMS101R_1m,,TAStat155_1m_1,,GenWind_1,,GenWind_1,
2017-07-31, 07:00:06,VALID,918.254,VALID,0.0,VALID,92.12,VALID,115.264,VALID,19.909,VALID,134.0,VALID,0.35,
2017-07-31, 07:01:06,VALID,918.28,VALID,0.0,VALID,92.384,VALID,118.736,VALID,19.86,VALID,130.0,VALID,0.265,
2017-07-31, 07:02:06,VALID,918.316,VALID,0.0,VALID,92.713,VALID,122.346,VALID,19.871,VALID,119.0,VALID,0.764,
2017-07-31, 07:03:06,VALID,918.334,VALID,0.0,VALID,93.282,VALID,125.772,VALID,19.86,VALID,123.0,VALID,0.656,
2017-07-31, 07:04:06,VALID,918.352,VALID,0.0,VALID,93.634,VALID,129.086,VALID,19.907,VALID,125.0,VALID,0.481,
2017-07-31, 07:05:06,VALID,918.371,VALID,0.0,VALID,93.865,VALID,132.353,VALID,19.972,VALID,147.0,VALID,0.836,
2017-07-31, 07:06:06,VALID,918.388,VALID,0.0,VALID,93.809,VALID,135.519,VALID,19.991,VALID,141.0,VALID,0.837,
2017-07-31, 07:07:06,VALID,918.39,VALID,0.0,VALID,93.896,VALID,139.086,VALID,20.013,VALID,137.0,VALID,0.817,
2017-07-31, 07:08:06,VALID,918.403,VALID,0.0,VALID,93.892,VALID,142.666,VALID,20.068,VALID,129.0,VALID,0.832,
2017-07-31, 07:09:06,VALID,918.42,VALID,0.0,VALID,93.748,VALID,146.044,VALID,20.15,VALID,129.0,VALID,0.629,
2017-07-31, 07:10:06,VALID,918.441,VALID,0.0,VALID,93.841,VALID,149.027,VALID,20.232,VALID,122.0,VALID,0.789,
2017-07-31, 07:11:06,VALID,918.463,VALID,0.0,VALID,93.587,VALID,150.27,VALID,20.298,VALID,127.0,VALID,0.868,
2017-07-31, 07:12:06,VALID,918.491,VALID,0.0,VALID,92.975,VALID,149.319,VALID,20.321,VALID,121.0,VALID,1.363,
2017-07-31, 07:13:06,VALID,918.536,VALID,0.0,VALID,92.965,VALID,146.841,VALID,20.323,VALID,122.0,VALID,1.026,
2017-07-31, 07:14:06,VALID,918.553,VALID,0.0,VALID,92.612,VALID,144.125,VALID,20.309,VALID,138.0,VALID,1.509,
2017-07-31, 07:15:06,VALID,918.573,VALID,0.0,VALID,92.603,VALID,142.456,VALID,20.23,VALID,137.0,VALID,1.479,
2017-07-31, 07:16:06,VALID,918.584,VALID,0.0,VALID,93.012,VALID,145.182,VALID,20.18,VALID,130.0,VALID,1.616,
2017-07-31, 07:17:06,VALID,918.601,VALID,0.0,VALID,93.648,VALID,143.236,VALID,20.169,VALID,134.0,VALID,1.217,
2017-07-31, 07:18:06,VALID,918.613,VALID,0.0,VALID,93.656,VALID,151.831,VALID,20.156,VALID,131.0,VALID,1.271,
2017-07-31, 07:19:06,VALID,918.632,VALID,0.0,VALID,93.686,VALID,158.622,VALID,20.118,VALID,131.0,VALID,1.425,
2017-07-31, 07:20:06,VALID,918.64,VALID,0.0,VALID,94.008,VALID,163.674,VALID,20.124,VALID,107.0,VALID,1.291,
2017-07-31, 07:21:06,VALID,918.658,VALID,0.0,VALID,94.098,VALID,169.461,VALID,20.175,VALID,116.0,VALID,1.098,
2017-07-31, 07:22:06,VALID,918.676,VALID,0.0,VALID,94.438,VALID,175.035,VALID,20.285,VALID,124.0,VALID,0.957,
2017-07-31, 07:23:06,VALID,918.683,VALID,0.0,VALID,93.444,VALID,179.241,VALID,20.316,VALID,122.0,VALID,1.325,
2017-07-31, 07:24:06,VALID,918.697,VALID,0.0,VALID,93.137,VALID,183.789,VALID,20.293,VALID,136.0,VALID,1.591,
2017-07-31, 07:25:06,VALID,918.701,VALID,0.0,VALID,92.67,VALID,190.499,VALID,20.254,VALID,141.0,VALID,1.654,
2017-07-31, 07:26:06,VALID,918.712,VALID,0.0,VALID,92.873,VALID,197.78,VALID,20.225,VALID,139.0,VALID,1.281,
2017-07-31, 07:27:06,VALID,918.726,VALID,0.0,VALID,92.917,VALID,203.565,VALID,20.229,VALID,142.0,VALID,1.19,
2017-07-31, 07:28:06,VALID,918.749,VALID,0.0,VALID,92.772,VALID,208.236,VALID,20.235,VALID,144.0,VALID,1.61,
2017-07-31, 07:29:06,VALID,918.759,VALID,0.0,VALID,92.748,VALID,213.341,VALID,20.229,VALID,136.0,VALID,1.113,
2017-07-31, 07:30:06,VALID,918.756,VALID,0.0,VALID,93.472,VALID,216.843,VALID,20.303,VALID,136.0,VALID,1.155,
2017-07-31, 07:31:06,VALID,918.769,VALID,0.0,VALID,92.87,VALID,220.665,VALID,20.34,VALID,128.0,VALID,1.551,
2017-07-31, 07:32:06,VALID,918.764,VALID,0.0,VALID,92.713,VALID,222.03,VALID,20.4,VALID,132.0,VALID,1.238,
2017-07-31, 07:33:06,VALID,918.75,VALID,0.0,VALID,93.222,VALID,225.5,VALID,20.52,VALID,102.0,VALID,1.315,
2017-07-31, 07:34:06,VALID,918.751,VALID,0.0,VALID,91.996,VALID,231.145,VALID,20.574,VALID,99.0,VALID,1.745,
2017-07-31, 07:35:06,VALID,918.745,VALID,0.0,VALID,91.233,VALID,236.752,VALID,20.537,VALID,97.0,VALID,1.728,
2017-07-31, 07:36:06,VALID,918.749,VALID,0.0,VALID,91.338,VALID,240.055,VALID,20.509,VALID,104.0,VALID,1.642,
2017-07-31, 07:37:06,VALID,918.742,VALID,0.0,VALID,92.396,VALID,243.894,VALID,20.604,VALID,97.0,VALID,1.325,
2017-07-31, 07:38:06,VALID,918.744,VALID,0.0,VALID,92.38,VALID,246.695,VALID,20.707,VALID,92.0,VALID,1.237,
2017-07-31, 07:39:06,VALID,918.734,VALID,0.0,VALID,91.987,VALID,251.316,VALID,20.77,VALID,95.0,VALID,1.512,
2017-07-31, 07:40:06,VALID,918.752,VALID,0.0,VALID,91.566,VALID,254.656,VALID,20.803,VALID,84.0,VALID,1.37,
2017-07-31, 07:41:06,VALID,918.749,VALID,0.0,VALID,91.03,VALID,256.311,VALID,20.809,VALID,79.0,VALID,1.704,
2017-07-31, 07:42:06,VALID,918.769,VALID,0.0,VALID,90.618,VALID,257.647,VALID,20.798,VALID,81.0,VALID,1.554,
2017-07-31, 07:43:06,VALID,918.784,VALID,0.0,VALID,90.779,VALID,258.899,VALID,20.811,VALID,87.0,VALID,1.208,
2017-07-31, 07:44:06,VALID,918.793,VALID,0.0,VALID,91.075,VALID,260.024,VALID,20.859,VALID,106.0,VALID,1.45,
2017-07-31, 07:45:06,VALID,918.778,VALID,0.0,VALID,90.507,VALID,259.77,VALID,20.932,VALID,97.0,VALID,1.186,
2017-07-31, 07:46:06,VALID,918.798,VALID,0.0,VALID,90.287,VALID,263.325,VALID,21.016,VALID,108.0,VALID,1.402,
2017-07-31, 07:47:06,VALID,918.788,VALID,0.0,VALID,89.934,VALID,264.898,VALID,21.109,VALID,103.0,VALID,1.248,
2017-07-31, 07:48:06,VALID,918.786,VALID,0.0,VALID,89.36,VALID,266.687,VALID,21.202,VALID,101.0,VALID,1.261,
2017-07-31, 07:49:06,VALID,918.783,VALID,0.0,VALID,88.19,VALID,270.619,VALID,21.215,VALID,103.0,VALID,1.192,
2017-07-31, 07:50:06,VALID,918.782,VALID,0.0,VALID,89.337,VALID,264.546,VALID,21.243,VALID,100.0,VALID,1.073,
2017-07-31, 07:51:06,VALID,918.775,VALID,0.0,VALID,88.942,VALID,258.425,VALID,21.343,VALID,98.0,VALID,1.251,
2017-07-31, 07:52:06,VALID,918.775,VALID,0.0,VALID,88.368,VALID,236.094,VALID,21.387,VALID,91.0,VALID,1.344,
2017-07-31, 07:53:06,VALID,918.784,VALID,0.0,VALID,87.508,VALID,184.82,VALID,21.426,VALID,97.0,VALID,1.475,
2017-07-31, 07:54:06,VALID,918.789,VALID,0.0,VALID,86.725,VALID,240.634,VALID,21.396,VALID,104.0,VALID,1.684,
2017-07-31, 07:55:06,VALID,918.808,VALID,0.0,VALID,86.867,VALID,279.952,VALID,21.354,VALID,101.0,VALID,1.628,
2017-07-31, 07:56:06,VALID,918.81,VALID,0.0,VALID,87.367,VALID,282.878,VALID,21.406,VALID,108.0,VALID,1.29,
2017-07-31, 07:57:06,VALID,918.805,VALID,0.0,VALID,87.318,VALID,287.612,VALID,21.504,VALID,113.0,VALID,1.772,
2017-07-31, 07:58:06,VALID,918.813,VALID,0.0,VALID,86.37,VALID,290.285,VALID,21.557,VALID,109.0,VALID,1.791,
2017-07-31, 07:59:06,VALID,918.831,VALID,0.0,VALID,86.613,VALID,288.705,VALID,21.632,VALID,99.0,VALID,1.27,
2017-07-31, 08:00:06,VALID,918.841,VALID,0.0,VALID,86.604,VALID,283.261,VALID,21.738,VALID,111.0,VALID,1.187,
2017-07-31, 08:01:06,VALID,918.864,VALID,0.0,VALID,85.506,VALID,279.279,VALID,21.811,VALID,121.0,VALID,1.26,
2017-07-31, 08:02:06,VALID,918.872,VALID,0.0,VALID,86.936,VALID,275.633,VALID,21.883,VALID,132.0,VALID,0.785,
2017-07-31, 08:03:06,VALID,918.894,VALID,0.0,VALID,87.072,VALID,278.092,VALID,21.94,VALID,130.0,VALID,0.896,
2017-07-31, 08:04:06,VALID,918.906,VALID,0.0,VALID,86.928,VALID,281.563,VALID,21.987,VALID,131.0,VALID,0.779,
2017-07-31, 08:05:06,VALID,918.916,VALID,0.0,VALID,86.134,VALID,292.337,VALID,22.002,VALID,131.0,VALID,0.984,
2017-07-31, 08:06:06,VALID,918.929,VALID,0.0,VALID,86.146,VALID,301.947,VALID,22.081,VALID,132.0,VALID,0.412,
2017-07-31, 08:07:06,VALID,918.919,VALID,0.0,VALID,85.69,VALID,314.759,VALID,22.223,VALID,148.0,VALID,0.748,
2017-07-31, 08:08:06,VALID,918.913,VALID,0.0,VALID,84.489,VALID,317.312,VALID,22.23,VALID,146.0,VALID,0.877,
2017-07-31, 08:09:06,VALID,918.91,VALID,0.0,VALID,84.7,VALID,322.133,VALID,22.19,VALID,137.0,VALID,0.727,
2017-07-31, 08:10:06,VALID,918.881,VALID,0.0,VALID,84.71,VALID,325.039,VALID,22.262,VALID,136.0,VALID,0.673,
2017-07-31, 08:11:06,VALID,918.861,VALID,0.0,VALID,83.848,VALID,330.992,VALID,22.242,VALID,115.0,VALID,0.55,
2017-07-31, 08:12:06,VALID,918.837,VALID,0.0,VALID,84.718,VALID,338.08,VALID,22.406,VALID,92.0,VALID,0.525,
2017-07-31, 08:13:06,VALID,918.801,VALID,0.0,VALID,83.233,VALID,345.327,VALID,22.622,VALID,111.0,VALID,0.227,
2017-07-31, 08:14:06,VALID,918.784,VALID,0.0,VALID,82.16,VALID,347.672,VALID,22.761,VALID,105.0,VALID,0.145,
2017-07-31, 08:15:06,VALID,918.77,VALID,0.0,VALID,81.997,VALID,351.891,VALID,22.87,VALID,85.0,VALID,0.055,
2017-07-31, 08:16:06,VALID,918.784,VALID,0.0,VALID,81.315,VALID,353.754,VALID,23.119,VALID,32.0,VALID,0.367,
2017-07-31, 08:17:06,VALID,918.784,VALID,0.0,VALID,80.321,VALID,351.34,VALID,23.384,VALID,2.0,VALID,0.089,
2017-07-31, 08:18:06,VALID,918.798,VALID,0.0,VALID,78.812,VALID,355.215,VALID,23.659,VALID,44.0,VALID,0.135,
2017-07-31, 08:19:06,VALID,918.805,VALID,0.0,VALID,77.554,VALID,362.098,VALID,23.899,VALID,64.0,VALID,0.201,
2017-07-31, 08:20:06,VALID,918.802,VALID,0.0,VALID,76.823,VALID,374.498,VALID,23.97,VALID,76.0,VALID,0.066,
2017-07-31, 08:21:06,VALID,918.812,VALID,0.0,VALID,76.872,VALID,375.954,VALID,24.039,VALID,85.0,VALID,0.025,
2017-07-31, 08:22:06,VALID,918.811,VALID,0.0,VALID,76.787,VALID,371.06,VALID,24.256,VALID,23.0,VALID,0.052,
2017-07-31, 08:23:06,VALID,918.833,VALID,0.0,VALID,76.046,VALID,374.306,VALID,24.437,VALID,289.0,VALID,0.199,
2017-07-31, 08:24:06,VALID,918.844,VALID,0.0,VALID,76.608,VALID,381.381,VALID,24.13,VALID,282.0,VALID,0.276,
2017-07-31, 08:25:06,VALID,918.866,VALID,0.0,VALID,78.429,VALID,399.611,VALID,23.975,VALID,38.0,VALID,0.464,
2017-07-31, 08:26:06,VALID,918.871,VALID,0.0,VALID,75.338,VALID,404.036,VALID,23.955,VALID,19.0,VALID,0.809,
2017-07-31, 08:27:06,VALID,918.89,VALID,0.0,VALID,75.408,VALID,407.834,VALID,23.812,VALID,10.0,VALID,0.081,
2017-07-31, 08:28:06,VALID,918.892,VALID,0.0,VALID,77.347,VALID,414.088,VALID,23.867,VALID,7.0,VALID,0.224,
2017-07-31, 08:29:06,VALID,918.909,VALID,0.0,VALID,76.959,VALID,415.619,VALID,23.977,VALID,335.0,VALID,0.483,
2017-07-31, 08:30:06,VALID,918.933,VALID,0.0,VALID,75.444,VALID,418.475,VALID,23.921,VALID,339.0,VALID,0.745,
2017-07-31, 08:31:06,VALID,918.96,VALID,0.0,VALID,75.274,VALID,422.602,VALID,23.88,VALID,314.0,VALID,0.446,
2017-07-31, 08:32:06,VALID,918.978,VALID,0.0,VALID,75.014,VALID,425.169,VALID,23.746,VALID,320.0,VALID,0.652,
2017-07-31, 08:33:06,VALID,919.003,VALID,0.0,VALID,75.293,VALID,423.979,VALID,23.711,VALID,330.0,VALID,0.741,
2017-07-31, 08:34:06,VALID,919.023,VALID,0.0,VALID,74.423,VALID,421.569,VALID,23.658,VALID,312.0,VALID,0.394,
2017-07-31, 08:35:06,VALID,919.054,VALID,0.0,VALID,74.662,VALID,427.246,VALID,23.591,VALID,289.0,VALID,0.199,
2017-07-31, 08:36:06,VALID,919.067,VALID,0.0,VALID,76.227,VALID,429.137,VALID,23.601,VALID,292.0,VALID,0.027,
2017-07-31, 08:37:06,VALID,919.086,VALID,0.0,VALID,75.959,VALID,429.714,VALID,23.944,VALID,331.0,VALID,0.398,
2017-07-31, 08:38:06,VALID,919.105,VALID,0.0,VALID,76.412,VALID,434.171,VALID,24.213,VALID,272.0,VALID,0.723,
2017-07-31, 08:39:06,VALID,919.134,VALID,0.0,VALID,75.67,VALID,441.489,VALID,24.249,VALID,200.0,VALID,0.499,
2017-07-31, 08:40:06,VALID,919.148,VALID,0.0,VALID,75.874,VALID,448.535,VALID,24.242,VALID,113.0,VALID,0.364,
2017-07-31, 08:41:06,VALID,919.17,VALID,0.0,VALID,74.617,VALID,456.162,VALID,24.274,VALID,186.0,VALID,0.375,
2017-07-31, 08:42:06,VALID,919.191,VALID,0.0,VALID,74.591,VALID,461.442,VALID,24.268,VALID,138.0,VALID,0.44,
2017-07-31, 08:43:06,VALID,919.194,VALID,0.0,VALID,74.719,VALID,466.555,VALID,24.142,VALID,93.0,VALID,0.243,
2017-07-31, 08:44:06,VALID,919.213,VALID,0.0,VALID,75.548,VALID,471.166,VALID,24.298,VALID,42.0,VALID,0.404,
2017-07-31, 08:45:06,VALID,919.222,VALID,0.0,VALID,73.483,VALID,474.994,VALID,24.545,VALID,37.0,VALID,0.934,
2017-07-31, 08:46:06,VALID,919.243,VALID,0.0,VALID,72.518,VALID,477.168,VALID,24.686,VALID,13.0,VALID,0.177,
2017-07-31, 08:47:06,VALID,919.249,VALID,0.0,VALID,70.194,VALID,478.848,VALID,24.798,VALID,353.0,VALID,0.292,
2017-07-31, 08:48:06,VALID,919.254,VALID,0.0,VALID,70.561,VALID,481.886,VALID,24.702,VALID,13.0,VALID,1.05,
2017-07-31, 08:49:06,VALID,919.27,VALID,0.0,VALID,70.772,VALID,483.956,VALID,24.512,VALID,25.0,VALID,0.967,
2017-07-31, 08:50:06,VALID,919.284,VALID,0.0,VALID,73.21,VALID,483.528,VALID,24.455,VALID,359.0,VALID,0.599,
2017-07-31, 08:51:06,VALID,919.29,VALID,0.0,VALID,72.673,VALID,483.934,VALID,24.59,VALID,11.0,VALID,0.764,
2017-07-31, 08:52:06,VALID,919.282,VALID,0.0,VALID,72.341,VALID,477.746,VALID,24.601,VALID,24.0,VALID,1.098,
2017-07-31, 08:53:06,VALID,919.298,VALID,0.0,VALID,71.907,VALID,485.526,VALID,24.405,VALID,24.0,VALID,0.426,
2017-07-31, 08:54:06,VALID,919.29,VALID,0.0,VALID,72.613,VALID,484.981,VALID,24.362,VALID,31.0,VALID,0.131,
2017-07-31, 08:55:06,VALID,919.29,VALID,0.0,VALID,71.354,VALID,482.461,VALID,24.586,VALID,30.0,VALID,0.0,
2017-07-31, 08:56:06,VALID,919.276,VALID,0.0,VALID,70.498,VALID,491.475,VALID,24.809,VALID,323.0,VALID,0.081,
2017-07-31, 08:57:06,VALID,919.273,VALID,0.0,VALID,71.329,VALID,505.225,VALID,25.088,VALID,28.0,VALID,0.713,
2017-07-31, 08:58:06,VALID,919.259,VALID,0.0,VALID,69.963,VALID,514.144,VALID,25.235,VALID,24.0,VALID,1.072,
2017-07-31, 08:59:06,VALID,919.251,VALID,0.0,VALID,70.583,VALID,516.838,VALID,25.306,VALID,10.0,VALID,0.997,
2017-07-31, 09:00:06,VALID,919.245,VALID,0.0,VALID,69.9,VALID,515.02,VALID,25.407,VALID,9.0,VALID,0.532,
2017-07-31, 09:01:06,VALID,919.229,VALID,0.0,VALID,68.85,VALID,507.894,VALID,25.464,VALID,12.0,VALID,0.374,
2017-07-31, 09:02:06,VALID,919.23,VALID,0.0,VALID,69.295,VALID,515.926,VALID,25.568,VALID,360.0,VALID,0.714,
2017-07-31, 09:03:06,VALID,919.228,VALID,0.0,VALID,68.061,VALID,508.869,VALID,25.402,VALID,8.0,VALID,0.117,
2017-07-31, 09:04:06,VALID,919.242,VALID,0.0,VALID,68.621,VALID,498.574,VALID,25.283,VALID,289.0,VALID,0.655,
2017-07-31, 09:05:06,VALID,919.253,VALID,0.0,VALID,69.766,VALID,508.929,VALID,24.923,VALID,293.0,VALID,0.678,
2017-07-31, 09:06:06,VALID,919.258,VALID,0.0,VALID,70.591,VALID,520.74,VALID,24.664,VALID,266.0,VALID,0.296,
2017-07-31, 09:07:06,VALID,919.255,VALID,0.0,VALID,71.634,VALID,528.352,VALID,24.548,VALID,252.0,VALID,0.443,
2017-07-31, 09:08:06,VALID,919.256,VALID,0.0,VALID,71.883,VALID,533.133,VALID,24.438,VALID,242.0,VALID,0.522,
2017-07-31, 09:09:06,VALID,919.238,VALID,0.0,VALID,72.899,VALID,522.964,VALID,24.33,VALID,258.0,VALID,0.688,
2017-07-31, 09:10:06,VALID,919.232,VALID,0.0,VALID,73.659,VALID,543.144,VALID,24.244,VALID,271.0,VALID,0.403,
2017-07-31, 09:11:06,VALID,919.218,VALID,0.0,VALID,74.158,VALID,556.336,VALID,24.233,VALID,265.0,VALID,0.291,
2017-07-31, 09:12:06,VALID,919.208,VALID,0.0,VALID,73.297,VALID,563.883,VALID,24.236,VALID,294.0,VALID,0.877,
2017-07-31, 09:13:06,VALID,919.209,VALID,0.0,VALID,74.003,VALID,567.999,VALID,24.136,VALID,294.0,VALID,0.575,
2017-07-31, 09:14:06,VALID,919.219,VALID,0.0,VALID,74.36,VALID,578.039,VALID,24.155,VALID,307.0,VALID,0.329,
2017-07-31, 09:15:06,VALID,919.236,VALID,0.0,VALID,74.387,VALID,579.723,VALID,24.178,VALID,296.0,VALID,0.852,
2017-07-31, 09:16:06,VALID,919.255,VALID,0.0,VALID,74.536,VALID,582.844,VALID,24.179,VALID,358.0,VALID,0.308,
2017-07-31, 09:17:06,VALID,919.271,VALID,0.0,VALID,73.973,VALID,586.544,VALID,24.345,VALID,283.0,VALID,0.587,
2017-07-31, 09:18:06,VALID,919.28,VALID,0.0,VALID,73.588,VALID,588.748,VALID,24.418,VALID,305.0,VALID,0.361,
2017-07-31, 09:19:06,VALID,919.286,VALID,0.0,VALID,73.336,VALID,586.913,VALID,24.463,VALID,289.0,VALID,0.93,
2017-07-31, 09:20:06,VALID,919.31,VALID,0.0,VALID,73.275,VALID,581.771,VALID,24.49,VALID,298.0,VALID,0.531,
2017-07-31, 09:21:06,VALID,919.307,VALID,0.0,VALID,73.151,VALID,589.77,VALID,24.565,VALID,13.0,VALID,0.424,
2017-07-31, 09:22:06,VALID,919.298,VALID,0.0,VALID,73.102,VALID,592.943,VALID,24.776,VALID,351.0,VALID,0.518,
2017-07-31, 09:23:06,VALID,919.299,VALID,0.0,VALID,72.054,VALID,599.781,VALID,25.015,VALID,317.0,VALID,0.232,
2017-07-31, 09:24:06,VALID,919.29,VALID,0.0,VALID,72.602,VALID,597.915,VALID,25.228,VALID,11.0,VALID,1.058,
2017-07-31, 09:25:06,VALID,919.287,VALID,0.0,VALID,71.814,VALID,590.846,VALID,25.528,VALID,319.0,VALID,0.448,
2017-07-31, 09:26:06,VALID,919.29,VALID,0.0,VALID,69.827,VALID,577.717,VALID,25.723,VALID,352.0,VALID,0.45,
2017-07-31, 09:27:06,VALID,919.287,VALID,0.0,VALID,68.947,VALID,590.765,VALID,25.884,VALID,325.0,VALID,0.305,
2017-07-31, 09:28:06,VALID,919.285,VALID,0.0,VALID,67.994,VALID,609.501,VALID,25.967,VALID,316.0,VALID,0.262,
2017-07-31, 09:29:06,VALID,919.299,VALID,0.0,VALID,69.021,VALID,622.694,VALID,26.054,VALID,339.0,VALID,0.817,
2017-07-31, 09:30:06,VALID,919.306,VALID,0.0,VALID,69.621,VALID,630.558,VALID,26.003,VALID,352.0,VALID,0.98,
2017-07-31, 09:31:06,VALID,919.341,VALID,0.0,VALID,69.077,VALID,634.127,VALID,26.012,VALID,308.0,VALID,0.498,
2017-07-31, 09:32:06,VALID,919.354,VALID,0.0,VALID,68.52,VALID,671.156,VALID,25.906,VALID,18.0,VALID,0.894,
2017-07-31, 09:33:06,VALID,919.401,VALID,0.0,VALID,69.122,VALID,684.359,VALID,25.997,VALID,298.0,VALID,0.699,
2017-07-31, 09:34:06,VALID,919.421,VALID,0.0,VALID,67.957,VALID,694.435,VALID,25.661,VALID,314.0,VALID,1.385,
2017-07-31, 09:35:06,VALID,919.408,VALID,0.0,VALID,70.369,VALID,674.594,VALID,25.202,VALID,16.0,VALID,1.67,
2017-07-31, 09:36:06,VALID,919.435,VALID,0.0,VALID,70.898,VALID,576.194,VALID,25.189,VALID,18.0,VALID,1.555,
2017-07-31, 09:37:06,VALID,919.438,VALID,0.0,VALID,71.458,VALID,440.184,VALID,25.308,VALID,3.0,VALID,0.78,
2017-07-31, 09:38:06,VALID,919.427,VALID,0.0,VALID,70.789,VALID,129.098,VALID,25.352,VALID,3.0,VALID,1.219,
2017-07-31, 09:39:06,VALID,919.405,VALID,0.0,VALID,69.296,VALID,186.169,VALID,25.09,VALID,9.0,VALID,1.454,
2017-07-31, 09:40:06,VALID,919.386,VALID,0.0,VALID,72.113,VALID,600.151,VALID,24.756,VALID,14.0,VALID,1.424,
2017-07-31, 09:41:06,VALID,919.375,VALID,0.0,VALID,72.445,VALID,498.7,VALID,24.748,VALID,16.0,VALID,1.06,
2017-07-31, 09:42:06,VALID,919.351,VALID,0.0,VALID,72.326,VALID,280.823,VALID,24.951,VALID,9.0,VALID,0.834,
2017-07-31, 09:43:06,VALID,919.335,VALID,0.0,VALID,71.982,VALID,559.829,VALID,25.071,VALID,4.0,VALID,0.895,
2017-07-31, 09:44:06,VALID,919.329,VALID,0.0,VALID,70.774,VALID,680.484,VALID,25.221,VALID,9.0,VALID,0.6,
2017-07-31, 09:45:06,VALID,919.33,VALID,0.0,VALID,69.437,VALID,682.459,VALID,25.468,VALID,327.0,VALID,0.191,
2017-07-31, 09:46:06,VALID,919.324,VALID,0.0,VALID,68.639,VALID,676.918,VALID,25.674,VALID,327.0,VALID,0.532,
2017-07-31, 09:47:06,VALID,919.334,VALID,0.0,VALID,69.243,VALID,683.726,VALID,25.722,VALID,1.0,VALID,0.761,
2017-07-31, 09:48:06,VALID,919.346,VALID,0.0,VALID,66.58,VALID,678.414,VALID,25.843,VALID,300.0,VALID,0.643,
2017-07-31, 09:49:06,VALID,919.351,VALID,0.0,VALID,65.946,VALID,681.606,VALID,25.662,VALID,292.0,VALID,0.65,
2017-07-31, 09:50:06,VALID,919.35,VALID,0.0,VALID,66.289,VALID,681.783,VALID,25.496,VALID,265.0,VALID,0.421,
2017-07-31, 09:51:06,VALID,919.364,VALID,0.0,VALID,67.898,VALID,676.259,VALID,25.491,VALID,241.0,VALID,0.064,
2017-07-31, 09:52:06,VALID,919.381,VALID,0.0,VALID,67.448,VALID,670.261,VALID,25.549,VALID,291.0,VALID,1.306,
2017-07-31, 09:53:06,VALID,919.375,VALID,0.0,VALID,67.74,VALID,690.344,VALID,25.24,VALID,332.0,VALID,0.859,
2017-07-31, 09:54:06,VALID,919.378,VALID,0.0,VALID,70.074,VALID,705.421,VALID,25.318,VALID,9.0,VALID,0.871,
2017-07-31, 09:55:06,VALID,919.375,VALID,0.0,VALID,67.318,VALID,713.245,VALID,25.569,VALID,258.0,VALID,0.695,
2017-07-31, 09:56:06,VALID,919.38,VALID,0.0,VALID,67.823,VALID,658.87,VALID,25.516,VALID,290.0,VALID,1.031,
2017-07-31, 09:57:06,VALID,919.4,VALID,0.0,VALID,68.416,VALID,442.253,VALID,25.389,VALID,301.0,VALID,0.855,
2017-07-31, 09:58:06,VALID,919.375,VALID,0.0,VALID,68.102,VALID,727.514,VALID,25.15,VALID,295.0,VALID,0.176,
2017-07-31, 09:59:06,VALID,919.375,VALID,0.0,VALID,68.689,VALID,742.564,VALID,25.178,VALID,343.0,VALID,0.057,
2017-07-31, 10:00:06,VALID,919.378,VALID,0.0,VALID,68.538,VALID,750.357,VALID,25.438,VALID,234.0,VALID,0.348,
2017-07-31, 10:01:06,VALID,919.393,VALID,0.0,VALID,68.7,VALID,654.122,VALID,25.555,VALID,273.0,VALID,0.491,
2017-07-31, 10:02:06,VALID,919.42,VALID,0.0,VALID,70.146,VALID,600.463,VALID,25.61,VALID,329.0,VALID,0.565,
2017-07-31, 10:03:06,VALID,919.413,VALID,0.0,VALID,68.012,VALID,543.363,VALID,25.725,VALID,289.0,VALID,0.905,
2017-07-31, 10:04:06,VALID,919.423,VALID,0.0,VALID,67.792,VALID,669.653,VALID,25.468,VALID,18.0,VALID,0.487,
2017-07-31, 10:05:06,VALID,919.432,VALID,0.0,VALID,69.468,VALID,844.437,VALID,25.396,VALID,4.0,VALID,0.244,
2017-07-31, 10:06:06,VALID,919.415,VALID,0.0,VALID,69.716,VALID,228.255,VALID,25.601,VALID,10.0,VALID,0.684,
2017-07-31, 10:07:06,VALID,919.43,VALID,0.0,VALID,69.874,VALID,167.262,VALID,25.84,VALID,351.0,VALID,0.267,
2017-07-31, 10:08:06,VALID,919.432,VALID,0.0,VALID,68.367,VALID,190.66,VALID,25.915,VALID,360.0,VALID,0.771,
2017-07-31, 10:09:06,VALID,919.435,VALID,0.0,VALID,68.028,VALID,297.218,VALID,25.687,VALID,346.0,VALID,0.315,
2017-07-31, 10:10:06,VALID,919.429,VALID,0.0,VALID,69.357,VALID,554.215,VALID,25.562,VALID,295.0,VALID,0.256,
2017-07-31, 10:11:06,VALID,919.433,VALID,0.0,VALID,70.671,VALID,559.678,VALID,25.594,VALID,25.0,VALID,0.329,
2017-07-31, 10:12:06,VALID,919.425,VALID,0.0,VALID,70.446,VALID,637.59,VALID,25.839,VALID,20.0,VALID,0.46,
2017-07-31, 10:13:06,VALID,919.437,VALID,0.0,VALID,69.101,VALID,210.33,VALID,26.022,VALID,349.0,VALID,0.828,
2017-07-31, 10:14:06,VALID,919.449,VALID,0.0,VALID,69.925,VALID,181.977,VALID,26.081,VALID,19.0,VALID,0.554,
2017-07-31, 10:15:06,VALID,919.438,VALID,0.0,VALID,69.521,VALID,264.203,VALID,26.083,VALID,26.0,VALID,0.943,
2017-07-31, 10:16:06,VALID,919.44,VALID,0.0,VALID,69.981,VALID,180.744,VALID,25.91,VALID,26.0,VALID,1.207,
2017-07-31, 10:17:06,VALID,919.438,VALID,0.0,VALID,70.764,VALID,223.627,VALID,25.711,VALID,26.0,VALID,1.493,
2017-07-31, 10:18:06,VALID,919.452,VALID,0.0,VALID,71.859,VALID,552.298,VALID,25.517,VALID,22.0,VALID,1.289,
2017-07-31, 10:19:06,VALID,919.453,VALID,0.0,VALID,72.019,VALID,832.208,VALID,25.449,VALID,22.0,VALID,1.12,
2017-07-31, 10:20:06,VALID,919.471,VALID,0.0,VALID,72.403,VALID,808.451,VALID,25.532,VALID,207.0,VALID,0.237,
2017-07-31, 10:21:06,VALID,919.444,VALID,0.0,VALID,72.146,VALID,797.888,VALID,25.785,VALID,16.0,VALID,0.072,
2017-07-31, 10:22:06,VALID,919.442,VALID,0.0,VALID,71.278,VALID,796.89,VALID,26.207,VALID,303.0,VALID,0.23,
2017-07-31, 10:23:06,VALID,919.436,VALID,0.0,VALID,69.018,VALID,798.527,VALID,26.458,VALID,280.0,VALID,0.322,
2017-07-31, 10:24:06,VALID,919.419,VALID,0.0,VALID,68.749,VALID,806.834,VALID,26.434,VALID,298.0,VALID,0.411,
2017-07-31, 10:25:06,VALID,919.418,VALID,0.0,VALID,68.449,VALID,816.67,VALID,26.331,VALID,262.0,VALID,0.706,
2017-07-31, 10:26:06,VALID,919.4,VALID,0.0,VALID,68.859,VALID,830.964,VALID,26.173,VALID,283.0,VALID,1.209,
2017-07-31, 10:27:06,VALID,919.397,VALID,0.0,VALID,70.655,VALID,859.635,VALID,26.004,VALID,342.0,VALID,0.37,
2017-07-31, 10:28:06,VALID,919.399,VALID,0.0,VALID,69.799,VALID,893.201,VALID,26.28,VALID,2.0,VALID,0.973,
2017-07-31, 10:29:06,VALID,919.41,VALID,0.0,VALID,69.272,VALID,880.822,VALID,26.338,VALID,3.0,VALID,0.746,
2017-07-31, 10:30:06,VALID,919.432,VALID,0.0,VALID,69.039,VALID,963.732,VALID,26.351,VALID,268.0,VALID,0.653,
2017-07-31, 10:31:06,VALID,919.442,VALID,0.0,VALID,68.836,VALID,926.829,VALID,26.337,VALID,243.0,VALID,0.881,
2017-07-31, 10:32:06,VALID,919.422,VALID,0.0,VALID,68.632,VALID,603.059,VALID,26.344,VALID,224.0,VALID,1.245,
2017-07-31, 10:33:06,VALID,919.44,VALID,0.0,VALID,70.365,VALID,877.536,VALID,26.286,VALID,298.0,VALID,1.405,
2017-07-31, 10:34:06,VALID,919.435,VALID,0.0,VALID,69.937,VALID,974.021,VALID,26.368,VALID,73.0,VALID,0.396,
2017-07-31, 10:35:06,VALID,919.421,VALID,0.0,VALID,68.746,VALID,606.097,VALID,26.681,VALID,240.0,VALID,0.716,
2017-07-31, 10:36:06,VALID,919.404,VALID,0.0,VALID,68.662,VALID,257.98,VALID,26.564,VALID,256.0,VALID,1.105,